Johns Riffle, Oregon, United States
Lat: 42.72N, Lon: 123.86W
Wx Zone: ORZ024
Local Info
Past Weather Observations for Today

NOTE: This archive is for the closest National Weather Service station to Johns Riffle. Information may differ from the station used for current weather conditions.

Click here for Long-term Archive

Time Weather Temperature Dewpoint Humidity Pressure Winds Precip Visibility
06:56
Obscured
Fog
45°F / 7°C 45°F / 7°C 100% 30.12 in
(1020 mb)
Variable 4.6 mph
(Variable 7 kph)
- M1/4SM
05:56
Obscured
Fog
45°F / 7°C 45°F / 7°C 100% 30.12 in
(1020 mb)
N 5.8 mph
(N 9 kph)
- M1/4SM
05:11
Obscured
Fog
45°F / 7°C 45°F / 7°C 100% 30.12 in
(1020 mb)
NNE 6.9 mph
(NNE 11 kph)
- M1/4SM
05:01
Obscured
Fog And Mist
45°F / 7°C 43°F / 6°C 93% 30.12 in
(1020 mb)
NNE 8.1 mph
(NNE 13 kph)
- 3/4SM
04:59
Partly Cloudy
Fog And Mist
45°F / 7°C 43°F / 6°C 93% 30.12 in
(1020 mb)
NNE 8.1 mph
(NNE 13 kph)
- 1 3/4SM
04:56
Partly Cloudy
Fog And Mist
45°F / 7°C 43°F / 6°C 93% 30.09 in
(1019 mb)
NNE 9.2 mph
(NNE 15 kph)
0.00 in
(0.00 mm)
4SM
04:49
Partly Cloudy
Fog And Mist
45°F / 7°C 43°F / 6°C 93% 30.12 in
(1020 mb)
NNE 8.1 mph
(NNE 13 kph)
0.00 in
(0.00 mm)
5SM
04:40
Mostly Cloudy
Fog And Mist
45°F / 7°C 43°F / 6°C 93% 30.12 in
(1020 mb)
NNE 6.9 mph
(NNE 11 kph)
0.00 in
(0.00 mm)
4SM
04:38
Mostly Cloudy
Fog And Mist
45°F / 7°C 43°F / 6°C 93% 30.09 in
(1019 mb)
NNE 6.9 mph
(NNE 11 kph)
0.00 in
(0.00 mm)
1 1/4SM
03:56
Obscured
Light Rain
45°F / 7°C 43°F / 6°C 93% 30.12 in
(1020 mb)
N 8.1 mph
(N 13 kph)
0.00 in
(0.00 mm)
1/4SM
03:53
Obscured
Fog
45°F / 7°C 43°F / 6°C 93% 30.12 in
(1020 mb)
N 6.9 mph
(N 11 kph)
- 1/4SM
03:49
Partly Cloudy
Fog And Mist
43°F / 6°C 43°F / 6°C 100% 30.12 in
(1020 mb)
N 6.9 mph
(N 11 kph)
- 1 1/4SM
02:56
Partly Cloudy
45°F / 7°C 45°F / 7°C 100% 30.12 in
(1020 mb)
NE 6.9 mph
(NE 11 kph)
- 10SM
02:49
Partly Cloudy
45°F / 7°C 45°F / 7°C 100% 30.12 in
(1020 mb)
NE 8.1 mph
(NE 13 kph)
- 10SM
02:39
Mostly Cloudy
Fog And Mist
45°F / 7°C 45°F / 7°C 100% 30.12 in
(1020 mb)
NNE 8.1 mph
(NNE 13 kph)
- 4SM
02:36
Mostly Cloudy
Fog And Mist
45°F / 7°C 45°F / 7°C 100% 30.12 in
(1020 mb)
NE 8.1 mph
(NE 13 kph)
- 1 1/2SM
02:33
Obscured
Fog And Mist
45°F / 7°C 45°F / 7°C 100% 30.12 in
(1020 mb)
NNE 9.2 mph
(NNE 15 kph)
- 3/4SM
02:23
Obscured
Fog
45°F / 7°C 45°F / 7°C 100% 30.12 in
(1020 mb)
NNE 8.1 mph
(NNE 13 kph)
- 1/4SM
02:16
Obscured
Fog And Mist
45°F / 7°C 45°F / 7°C 100% 30.12 in
(1020 mb)
N 9.2 mph
(N 15 kph)
- 1SM
01:59
Mostly Cloudy
Fog And Mist
45°F / 7°C 45°F / 7°C 100% 30.12 in
(1020 mb)
NNE 10.4 mph
(NNE 17 kph)
- 2 1/2SM
01:56
Partly Cloudy
Fog And Mist
45°F / 7°C 45°F / 7°C 100% 30.12 in
(1020 mb)
NNE 11.5 mph
(NNE 19 kph)
- 4SM
01:33
Partly Cloudy
Fog And Mist
45°F / 7°C 45°F / 7°C 100% 30.12 in
(1020 mb)
NNE 9.2 mph
(NNE 15 kph)
- 6SM
01:09
Mostly Cloudy
Fog And Mist
45°F / 7°C 45°F / 7°C 100% 30.15 in
(1021 mb)
N 9.2 mph
(N 15 kph)
- 3SM
01:04
Mostly Cloudy
Fog And Mist
45°F / 7°C 45°F / 7°C 100% 30.15 in
(1021 mb)
N 10.4 mph
(N 17 kph)
- 1 1/2SM
00:56
Obscured
Fog And Mist
45°F / 7°C 45°F / 7°C 100% 30.15 in
(1021 mb)
N 10.4 mph
(N 17 kph)
- 3/4SM
00:41
Obscured
Fog
45°F / 7°C 45°F / 7°C 100% 30.15 in
(1021 mb)
N 9.2 mph
(N 15 kph)
- 1/4SM
00:33
Obscured
Fog And Mist
45°F / 7°C 45°F / 7°C 100% 30.15 in
(1021 mb)
N 6.9 mph
(N 11 kph)
- 3/4SM
00:29
Mostly Cloudy
Fog And Mist
45°F / 7°C 45°F / 7°C 100% 30.15 in
(1021 mb)
N 8.1 mph
(N 13 kph)
- 1 1/2SM
Time Weather Temperature Dewpoint Humidity Pressure Winds Precip Visibility


Weather for websites

WeatherForYou.com, LLC is not responsible for any damages or problems caused by this service. Current weather conditions are obtained from the closest station including government and personal stations which may have varying degrees of accuracy. Weather forecasts are derived from the NOAA NDFD. Like all things, this site belongs to Jesus Christ... He just trusts us to maintain it. If you have any questions or comments email webmaster@weatherforyou.com

Copyright © 2015, WeatherForYou.com LLC. All rights reserved.